EHI
10 14 23 34 38 35 26 16 9 7 7 7 6 3 2 2 1 0 0 0 0 0 0 0 0 0 0 0 0 0 0 0 0 0 0 0 0 0 0 0 0 0 0
26 23 27 38 43 37 26 14 8 7 7 7 5 2 1 1 0 0 0 0 0 0 0 0 0 0 0 0 0 0 0 0 0 0 0 0 0 0 0 0 0 0 0
50 37 33 43 47 39 26 14 9 7 6 5 3 1 0 0 0 0 0 0 0 0 0 0 0 0 0 0 0 0 0 0 0 0 0 0 0 0 0 0 0 0 0
64 48 40 47 48 39 26 18 12 8 6 4 3 1 0 0 0 0 0 0 0 0 0 0 0 0 0 0 0 0 0 0 0 0 0 0 0 0 0 0 0 0 0
67 55 49 54 51 40 30 23 17 11 7 5 3 2 1 1 0 0 0 0 0 0 0 0 0 0 0 0 0 0 0 0 0 0 0 0 0 0 0 0 0 0 0
65 57 55 61 59 48 37 28 22 16 10 7 5 3 2 2 1 0 0 0 0 0 0 0 0 0 0 0 0 0 0 0 0 0 0 0 0 0 0 0 0 0 0
60 54 55 63 65 57 44 34 26 19 14 10 6 4 3 3 2 1 0 0 0 0 0 0 0 0 0 0 0 0 0 0 0 0 0 0 0 0 1 1 0 0 0
54 51 50 55 59 57 48 37 28 22 17 11 7 5 4 3 2 1 0 0 0 0 0 0 0 0 0 0 0 0 0 0 0 0 0 0 1 3 4 3 2 1 0
45 44 42 40 43 46 43 36 29 21 15 10 8 5 3 1 1 1 1 1 0 0 0 0 0 0 0 0 0 0 1 1 1 0 0 1 4 9 9 7 4 2 1
30 32 30 26 25 26 26 25 21 14 9 7 6 4 1 0 1 2 2 1 1 1 0 0 0 0 0 0 0 1 2 2 1 0 0 2 8 13 13 10 7 4 2
16 18 18 15 12 10 9 9 8 5 3 3 3 2 1 0 1 2 2 1 1 1 0 0 0 1 2 1 0 1 2 2 1 1 0 3 10 17 14 10 8 6 3
8 8 9 7 4 3 2 2 1 1 1 2 2 1 1 1 1 2 2 2 1 0 0 0 0 2 3 3 1 1 1 1 1 1 0 4 12 18 15 10 7 6 4
6 7 6 3 2 3 3 3 2 1 2 3 3 3 2 2 2 3 3 2 1 0 0 0 0 1 2 2 1 1 0 0 0 0 1 6 12 15 13 8 5 5 5
16 16 13 10 8 9 10 8 6 4 4 4 4 3 2 1 1 1 1 1 1 0 0 0 0 0 1 1 1 0 0 0 0 0 2 6 9 10 8 6 4 5 7
38 35 30 26 23 21 17 13 10 7 4 3 2 1 0 0 0 0 0 0 0 0 1 0 0 0 0 0 0 0 0 0 0 0 1 5 6 5 4 4 4 5 7
55 50 43 38 33 28 21 14 10 6 2 1 0 0 0 0 0 0 1 0 0 0 0 0 0 0 0 0 0 0 0 0 0 0 0 2 3 2 2 3 4 5 6
55 51 43 35 29 25 19 12 8 4 1 0 0 0 1 0 0 0 0 0 0 0 0 0 0 0 0 0 0 0 0 0 0 0 0 0 1 2 2 3 4 6 6
47 44 37 29 23 19 14 10 7 5 2 0 0 0 0 0 0 0 0 0 0 0 0 0 0 0 0 0 0 0 0 0 0 0 0 0 0 1 2 2 3 5 6
38 36 31 23 17 13 10 7 6 5 2 0 0 0 0 0 0 0 0 0 0 0 0 0 0 0 0 0 0 0 0 0 0 0 0 0 0 0 1 1 1 3 4
30 28 24 16 9 6 4 3 3 2 1 0 0 0 0 0 0 0 0 0 0 0 0 0 0 0 0 0 0 0 0 0 0 0 0 0 0 0 0 0 0 1 1
24 21 16 10 5 2 1 0 1 1 0 0 0 0 0 0 0 0 0 0 0 0 0 0 0 0 0 0 0 0 0 0 0 0 0 0 0 0 0 0 0 0 0
17 13 8 6 3 1 0 0 0 0 0 0 0 0 0 0 0 0 0 0 0 0 0 0 0 0 0 0 0 0 0 0 0 0 0 0 0 0 0 0 0 0 0
10 7 5 4 3 1 0 0 0 0 0 0 0 0 0 0 0 0 0 0 0 0 0 0 0 0 0 0 0 0 0 0 0 0 0 0 0 0 0 0 0 0 0
7 6 4 3 2 1 0 0 0 0 0 0 0 0 0 0 0 0 0 0 0 0 0 0 0 0 0 0 0 0 0 0 0 0 0 0 0 0 0 0 0 0 0
6 5 3 3 2 1 1 1 1 0 0 0 0 0 0 0 0 0 0 0 0 0 0 0 0 0 0 0 0 0 0 0 0 0 0 0 0 0 0 0 0 0 0
6 4 2 2 2 2 2 2 1 0 0 0 0 0 0 0 0 0 0 0 0 0 0 0 0 0 0 0 0 0 0 0 0 0 0 0 0 0 0 0 0 0 0
Wind_Speed
9 10 17 18 19 19 19 18 18 18 18 18 17 17 17 17 16 16 15 15 14 13 13 12 12 12 12 12 13 13 13 13 13 14 14 14 14 14 15 16 14 11 16
13 12 17 18 19 18 18 18 18 18 17 17 17 16 16 16 15 15 14 14 13 13 12 12 12 12 12 12 12 12 12 12 12 13 14 13 13 13 14 15 14 10 15
16 12 15 18 18 18 17 17 17 17 17 17 16 16 15 15 14 14 14 13 13 12 12 11 11 11 11 10 10 10 10 10 10 12 12 6 8 13 14 15 15 14 14
15 11 13 18 18 18 17 17 17 17 16 16 16 15 15 14 13 13 13 12 12 11 11 11 10 10 9 9 9 8 8 7 7 9 5 4 6 13 14 14 14 14 14
13 10 13 19 18 18 17 16 16 16 16 16 15 15 14 13 13 12 12 12 11 11 10 10 9 9 8 7 7 6 6 5 5 5 5 5 5 12 14 14 13 13 13
11 10 13 18 18 17 17 16 16 16 16 15 15 14 13 13 12 12 11 11 10 10 10 9 8 7 7 6 5 5 5 5 4 4 5 5 5 12 14 13 13 13 12
11 9 12 18 18 17 17 16 16 16 15 15 14 13 12 12 11 11 10 10 10 9 9 8 7 6 5 4 3 4 4 5 4 4 5 5 6 12 13 13 12 12 12
13 10 11 17 18 17 16 16 16 15 15 14 14 13 12 11 10 10 10 9 9 9 8 8 7 6 4 3 2 2 3 4 5 4 5 5 9 12 13 13 12 12 12
12 10 8 9 12 16 16 16 15 14 14 13 12 12 11 10 9 9 8 8 8 8 8 7 7 6 4 3 2 1 1 2 2 2 5 4 10 13 14 13 13 12 12
9 9 8 7 7 7 9 14 15 14 13 12 11 11 10 9 8 8 7 7 8 8 7 7 7 6 6 5 4 3 2 1 1 2 2 5 11 13 14 14 13 13 12
10 8 8 7 7 6 6 10 11 12 11 10 8 10 8 3 3 4 6 8 8 8 7 7 7 7 6 5 6 5 3 1 1 2 3 7 12 14 14 14 14 14 13
11 9 8 8 8 7 7 5 4 4 5 4 3 4 3 2 2 3 4 7 8 8 7 7 7 6 4 2 4 4 1 2 2 2 4 9 12 13 14 14 14 14 14
12 10 8 8 7 6 4 4 2 2 2 3 3 3 3 2 1 1 1 1 2 4 2 3 3 2 2 2 2 2 2 2 1 2 3 9 11 13 14 14 14 14 15
9 9 8 7 7 6 5 4 3 3 3 3 3 4 3 2 1 1 1 1 1 1 1 1 1 2 2 2 2 2 2 2 2 2 3 9 11 12 14 14 15 15 15
9 9 8 7 7 7 6 4 5 4 4 4 4 4 4 3 2 1 1 1 1 1 1 1 1 2 2 2 2 3 3 3 3 3 3 10 12 13 14 16 17 17 17
9 9 8 8 7 7 5 5 4 4 4 3 3 3 4 3 2 2 1 0 0 1 1 1 2 1 1 1 2 2 3 3 4 4 4 7 13 15 15 16 17 17 18
9 9 8 7 7 7 6 5 4 4 4 3 3 4 4 3 3 2 1 1 1 1 0 0 1 0 1 1 2 3 3 3 4 4 5 4 6 13 16 16 16 17 18
10 8 7 8 7 6 5 5 4 4 4 4 3 3 5 4 4 3 2 1 1 1 1 1 1 1 1 1 2 3 2 2 4 4 5 5 5 6 11 17 17 17 18
9 8 8 7 6 5 5 4 4 4 4 3 3 3 4 4 4 3 2 1 2 2 2 1 1 1 1 2 2 2 2 3 3 4 4 6 6 6 6 10 16 17 18
8 8 8 7 6 5 4 4 3 3 3 3 3 3 4 3 4 4 3 3 3 3 2 2 1 1 1 1 3 3 3 3 3 3 4 4 4 6 7 7 7 10 18
7 7 7 7 5 4 3 3 3 2 2 2 2 4 4 4 4 4 3 3 3 2 2 2 1 2 2 2 2 4 4 3 2 2 2 2 3 4 5 6 5 5 6
7 6 6 6 5 5 3 3 3 3 2 2 2 2 3 4 4 4 3 2 2 2 3 3 3 2 2 2 2 2 4 5 4 3 2 2 3 2 3 5 5 6 5
7 8 8 7 6 5 5 3 3 3 3 2 1 1 1 2 3 4 4 3 2 2 2 2 2 2 1 2 1 2 1 2 4 4 3 3 3 2 3 3 4 5 6
8 8 7 7 6 5 5 5 5 4 3 2 2 1 0 1 2 3 4 4 3 2 2 1 2 1 1 1 2 1 1 2 1 4 4 3 4 4 4 4 3 4 4
9 8 7 7 6 6 6 6 6 4 3 2 1 1 0 1 0 2 3 3 3 2 2 1 1 1 1 1 1 1 1 1 1 1 4 5 5 4 3 4 3 3 3
8 8 8 8 6 6 6 6 7 6 4 3 2 1 0 1 1 1 3 3 2 2 1 1 1 0 1 1 1 1 1 1 1 1 2 3 4 4 4 3 3 3 3
Wind_Direction
149 153 145 138 133 129 125 120 117 114 113 111 109 109 108 108 108 108 108 107 106 106 104 102 101 98 98 98 99 102 105 107 108 109 108 108 110 113 113 111 108 107 109
145 150 144 138 135 133 130 127 124 122 120 119 117 116 115 114 113 112 112 110 108 107 105 104 102 100 100 100 100 102 105 108 109 110 106 106 110 114 115 113 111 115 114
138 143 141 139 137 135 133 131 130 128 127 126 125 124 122 121 119 118 116 114 112 110 108 107 105 103 102 101 100 101 102 105 108 108 103 97 104 112 117 116 115 115 115
135 138 140 139 138 138 136 135 134 133 132 132 132 131 129 128 126 123 121 119 116 114 113 111 109 106 104 102 98 97 96 98 107 114 111 110 110 116 118 118 117 117 117
129 133 142 140 139 139 138 138 137 136 136 135 135 135 134 133 131 129 127 125 123 120 118 116 113 110 107 102 96 89 82 77 83 108 121 114 113 124 123 123 122 121 121
128 131 140 138 137 137 138 139 139 139 139 138 138 139 139 139 137 135 132 132 130 128 126 124 121 118 113 104 92 78 65 52 59 100 124 130 129 133 131 130 129 127 127
130 132 137 136 136 137 138 139 140 140 141 141 142 142 143 143 142 142 140 139 139 139 137 133 132 129 128 116 94 67 50 41 69 110 135 141 143 141 139 138 136 135 134
135 134 136 137 137 138 139 140 142 143 145 146 147 148 149 149 149 148 146 148 147 148 148 147 147 149 150 146 124 59 34 35 76 114 142 153 155 149 147 146 145 144 142
137 135 132 137 138 140 141 143 144 146 147 149 150 151 153 154 155 156 155 158 160 160 162 165 168 172 180 189 208 254 3 40 87 138 162 163 166 159 157 155 155 154 152
138 138 138 137 137 140 144 148 150 150 152 154 155 158 161 163 166 171 171 175 175 176 177 182 188 192 200 212 228 249 283 6 107 166 169 180 177 171 167 165 164 164 163
145 148 148 146 146 145 149 156 154 154 157 158 161 165 165 165 173 187 192 190 188 187 190 196 206 211 211 223 235 242 256 182 159 189 181 193 186 181 176 174 173 173 173
157 162 160 157 157 158 161 144 147 150 151 153 161 158 148 155 187 189 200 198 199 197 199 207 216 221 217 224 249 250 220 202 186 199 200 199 195 190 183 182 182 181 182
161 163 161 161 161 163 142 144 148 137 139 144 140 133 126 117 128 153 160 197 200 198 201 213 218 217 203 207 229 231 211 213 203 209 213 206 201 198 190 190 189 191 191
153 149 143 141 142 139 128 136 138 131 132 134 132 125 111 102 98 109 133 149 168 190 203 212 204 221 222 224 228 228 215 210 210 213 215 206 206 204 198 198 196 198 199
142 135 134 129 126 124 120 125 122 123 125 128 123 120 122 125 123 113 128 168 203 194 199 218 222 232 234 239 238 232 222 218 214 211 220 209 209 211 208 209 205 204 203
139 135 135 126 122 120 121 121 127 129 131 126 119 121 115 115 111 100 90 80 293 236 224 225 231 235 249 250 263 248 233 226 219 213 214 216 214 215 216 217 214 211 210
142 135 131 126 122 121 122 124 125 128 126 123 125 123 114 105 98 95 83 63 352 324 308 340 335 10 320 302 286 272 251 236 229 216 212 216 220 223 223 223 222 219 217
136 133 132 128 125 123 120 120 123 123 122 129 131 122 116 111 107 98 86 62 18 39 35 43 43 39 357 330 304 288 274 259 250 234 220 217 217 224 228 227 225 224 223
134 131 126 127 130 129 125 123 124 121 124 133 131 125 124 119 110 104 94 68 50 52 36 29 48 57 1 332 306 294 292 275 262 258 240 227 220 221 224 231 229 227 228
131 128 130 129 134 130 119 106 95 98 113 127 137 142 136 125 115 108 93 64 57 54 31 24 20 16 8 331 321 323 299 282 272 262 255 245 232 229 226 228 228 232 232
130 132 138 136 142 132 120 118 117 127 137 136 159 152 146 137 123 113 101 79 69 65 37 21 26 19 358 0 13 336 321 311 303 284 285 273 260 248 233 225 218 218 230
146 146 146 146 149 145 139 141 143 139 135 138 136 142 153 146 142 136 124 112 91 68 40 38 48 41 357 22 50 16 345 338 336 331 331 320 306 285 258 244 226 219 222
161 165 161 159 156 153 142 119 94 77 67 64 75 114 184 160 153 145 140 132 116 101 72 47 68 85 16 348 47 99 57 303 313 322 337 348 339 325 307 287 253 237 227
177 172 163 163 158 153 141 130 129 130 135 166 171 182 240 167 163 161 150 141 131 117 104 85 103 108 103 353 345 32 184 197 254 314 321 332 337 332 317 307 292 265 243
178 174 170 165 159 154 145 138 128 128 142 143 122 108 4 345 53 150 144 132 129 126 125 97 89 96 143 177 248 302 331 344 161 197 301 322 329 317 312 301 295 286 267
179 176 170 164 164 160 151 143 141 143 145 132 121 116 13 13 36 97 131 134 142 149 165 191 196 219 217 226 228 217 208 233 262 230 265 296 304 302 309 306 307 301 289